Location: Aldenham
(51.6667°N, 0.3500°W)
Time: 05:29:00
(UTC+00:00)

A-11 Canister half - Pass Details

Date: 25 February 2026
Orbit: 1512 x 1687 km, 47.2° (Epoch: 5 March)

Event Time Altitude Azimuth Distance (km) Brightness Sun altitude
Rises 17:45:08 0° 200° (SSW) 4,916 12.1 -2.5°
Reaches altitude 10° 17:48:52 10° 190° (S) 3,940 11.4 -3.0°
Maximum altitude 17:56:58 28° 136° (SE) 2,762 10.1 -4.3°
Drops below altitude 10° 18:05:02 10° 83° (E) 3,932 10.4 -5.5°
Enters shadow 18:06:23 - 78° (ENE) 4,274 10.6 -5.7°
Sets 18:08:43 0° 73° (ENE) 4,905 - -6.1°
